When you browse on this site, cookies collect data to enhance your experience and personalize the content and advertising you see.
Visit our Privacy Policy to learn more. By continuing to use the site, you agree to this use of cookies and data.
  • In Portugal
  • List of Countries
  • For 7 days
  • Water Temperature
  • Satellite Maps
  • Weather Map
  • Weather Widgets
  • user-avatar
    Login

    Hourly Weather Drogiszka

    Today, 25 March, Monday

    Time Temperature Precipitation Wind Pressure Humidity
    00:00 +5°C° 0 mm 1 mps 751 mmHg 65%
    01:00 +3°C° 0 mm 2 mps 750 mmHg 68%
    02:00 +3°C° 0 mm 2 mps 749 mmHg 69%
    03:00 +2°C° 0 mm 2 mps 749 mmHg 71%
    04:00 +1°C° 0 mm 2 mps 748 mmHg 73%
    05:00 +2°C° 0 mm 2 mps 748 mmHg 72%
    06:00 +2°C° 0 mm 2 mps 748 mmHg 71%
    07:00 +2°C° 0 mm 2 mps 747 mmHg 69%
    08:00 +4°C° 0 mm 2 mps 747 mmHg 65%
    09:00 +4°C° 0 mm 3 mps 747 mmHg 61%
    10:00 +7°C° 0 mm 3 mps 746 mmHg 56%
    11:00 +7°C° 0.2 mm 3 mps 746 mmHg 55%
    12:00 +7°C° 0.2 mm 3 mps 746 mmHg 54%
    13:00 +7°C° 0.2 mm 4 mps 746 mmHg 52%
    14:00 +7°C° 0.2 mm 4 mps 746 mmHg 53%
    15:00 +6°C° 0.2 mm 4 mps 746 mmHg 54%
    16:00 +6°C° 0.2 mm 4 mps 746 mmHg 55%
    17:00 +5°C° 0 mm 4 mps 746 mmHg 61%
    18:00 +4°C° 0 mm 3 mps 747 mmHg 68%
    19:00 +3°C° 0 mm 3 mps 747 mmHg 74%
    20:00 +2°C° 0 mm 3 mps 747 mmHg 79%
    21:00 +1°C° 0 mm 3 mps 748 mmHg 83%
    22:00 +1°C° 0 mm 3 mps 748 mmHg 88%
    23:00 +1°C° 0 mm 3 mps 749 mmHg 90%

    Tomorrow, 26 March, Tuesday

    Time Temperature Precipitation Wind Pressure Humidity
    00:00 0°C° 0 mm 3 mps 750 mmHg 91%
    01:00 0°C° 0 mm 3 mps 750 mmHg 93%
    02:00 0°C° 0 mm 3 mps 750 mmHg 93%
    03:00 0°C° 0 mm 3 mps 751 mmHg 93%
    04:00 0°C° 0 mm 3 mps 751 mmHg 93%
    05:00 -1°C° 0 mm 4 mps 751 mmHg 90%
    06:00 -1°C° 0 mm 4 mps 751 mmHg 88%
    07:00 -1°C° 0 mm 4 mps 751 mmHg 86%
    08:00 0°C° 0 mm 5 mps 751 mmHg 82%
    09:00 +2°C° 0 mm 6 mps 750 mmHg 77%
    10:00 +2°C° 0 mm 8 mps 750 mmHg 73%
    11:00 +2°C° 0.1 mm 8 mps 750 mmHg 70%
    12:00 +2°C° 0.1 mm 8 mps 749 mmHg 67%
    13:00 +2°C° 0.1 mm 9 mps 749 mmHg 64%
    14:00 +2°C° 0.4 mm 9 mps 749 mmHg 67%
    15:00 +1°C° 0.4 mm 10 mps 749 mmHg 69%
    16:00 0°C° 0.4 mm 10 mps 750 mmHg 72%
    17:00 -1°C° 0 mm 8 mps 750 mmHg 70%
    18:00 -2°C° 0 mm 7 mps 751 mmHg 69%
    19:00 -4°C° 0 mm 5 mps 752 mmHg 67%
    20:00 -4°C° 0 mm 5 mps 753 mmHg 70%
    21:00 -4°C° 0 mm 5 mps 754 mmHg 72%
    22:00 -3°C° 0 mm 4 mps 755 mmHg 75%
    23:00 -3°C° 0 mm 4 mps 755 mmHg 76%

    Day after tomorrow, 27 March, Wednesday

    Time Temperature Precipitation Wind Pressure Humidity
    00:00 -4°C° 0 mm 4 mps 756 mmHg 78%
    01:00 -4°C° 0 mm 4 mps 756 mmHg 79%
    02:00 -4°C° 0 mm 4 mps 756 mmHg 80%
    03:00 -4°C° 0 mm 3 mps 756 mmHg 81%
    04:00 -4°C° 0 mm 3 mps 757 mmHg 82%
    05:00 -2°C° 0 mm 3 mps 757 mmHg 79%
    06:00 -2°C° 0 mm 3 mps 758 mmHg 76%
    07:00 -1°C° 0 mm 2 mps 758 mmHg 73%
    08:00 +1°C° 0 mm 2 mps 758 mmHg 66%
    09:00 +3°C° 0 mm 2 mps 758 mmHg 58%
    10:00 +4°C° 0 mm 2 mps 759 mmHg 50%
    11:00 +4°C° 0 mm 3 mps 759 mmHg 47%
    12:00 +5°C° 0 mm 3 mps 759 mmHg 43%
    13:00 +7°C° 0 mm 3 mps 759 mmHg 39%
    14:00 +7°C° 0 mm 3 mps 759 mmHg 44%
    15:00 +7°C° 0 mm 3 mps 759 mmHg 49%
    16:00 +7°C° 0 mm 3 mps 758 mmHg 54%
    17:00 +5°C° 0 mm 3 mps 759 mmHg 61%
    18:00 +5°C° 0 mm 2 mps 759 mmHg 67%
    19:00 +5°C° 0 mm 1 mps 759 mmHg 74%
    20:00 +4°C° 0 mm 2 mps 759 mmHg 77%
    21:00 +4°C° 0 mm 2 mps 759 mmHg 80%
    22:00 +4°C° 0 mm 2 mps 760 mmHg 84%
    23:00 +4°C° 0.1 mm 2 mps 760 mmHg 87%

    28 March, Thursday

    Time Temperature Precipitation Wind Pressure Humidity
    00:00 +4°C° 0.1 mm 2 mps 760 mmHg 90%
    01:00 +4°C° 0.1 mm 2 mps 760 mmHg 93%
    02:00 +4°C° 0.3 mm 2 mps 760 mmHg 94%
    03:00 +4°C° 0.3 mm 2 mps 760 mmHg 96%
    04:00 +4°C° 0.3 mm 2 mps 760 mmHg 97%
    05:00 +4°C° 0.1 mm 2 mps 760 mmHg 97%
    06:00 +6°C° 0.1 mm 1 mps 760 mmHg 96%
    07:00 +6°C° 0.1 mm 1 mps 761 mmHg 96%
    08:00 +7°C° 0 mm 1 mps 761 mmHg 91%
    09:00 +7°C° 0 mm 2 mps 761 mmHg 87%
    10:00 +7°C° 0 mm 2 mps 762 mmHg 83%
    11:00 +9°C° 0 mm 1 mps 762 mmHg 80%
    12:00 +9°C° 0 mm 1 mps 762 mmHg 77%
    13:00 +10°C° 0 mm 1 mps 762 mmHg 75%
    14:00 +10°C° 0 mm 1 mps 762 mmHg 72%
    15:00 +11°C° 0 mm 1 mps 762 mmHg 70%
    16:00 +11°C° 0 mm 1 mps 762 mmHg 68%
    17:00 +10°C° 0 mm 1 mps 762 mmHg 73%
    18:00 +9°C° 0 mm 1 mps 762 mmHg 77%
    19:00 +8°C° 0 mm 1 mps 762 mmHg 82%
    20:00 +7°C° 0 mm 1 mps 762 mmHg 83%
    21:00 +7°C° 0 mm 1 mps 763 mmHg 85%
    22:00 +6°C° 0 mm 1 mps 763 mmHg 86%
    23:00 +6°C° 0 mm 1 mps 763 mmHg 86%

    29 March, Friday

    Time Temperature Precipitation Wind Pressure Humidity
    00:00 +5°C° 0 mm 1 mps 763 mmHg 86%
    01:00 +5°C° 0 mm 1 mps 763 mmHg 86%
    02:00 +5°C° 0 mm 1 mps 763 mmHg 87%
    03:00 +4°C° 0 mm 1 mps 763 mmHg 87%
    04:00 +4°C° 0 mm 1 mps 763 mmHg 88%
    05:00 +5°C° 0 mm 1 mps 763 mmHg 86%
    06:00 +5°C° 0 mm 2 mps 763 mmHg 84%
    07:00 +5°C° 0 mm 2 mps 763 mmHg 81%
    08:00 +7°C° 0 mm 2 mps 763 mmHg 75%
    09:00 +9°C° 0 mm 3 mps 763 mmHg 68%
    10:00 +11°C° 0 mm 3 mps 763 mmHg 61%
    11:00 +12°C° 0 mm 3 mps 763 mmHg 58%
    12:00 +12°C° 0 mm 3 mps 762 mmHg 54%
    13:00 +13°C° 0 mm 4 mps 762 mmHg 51%
    14:00 +13°C° 0 mm 4 mps 762 mmHg 52%
    15:00 +13°C° 0 mm 4 mps 761 mmHg 52%
    16:00 +13°C° 0 mm 4 mps 761 mmHg 53%
    17:00 +11°C° 0 mm 3 mps 761 mmHg 59%
    18:00 +10°C° 0 mm 3 mps 761 mmHg 66%
    19:00 +8°C° 0 mm 2 mps 760 mmHg 72%
    20:00 +8°C° 0 mm 2 mps 760 mmHg 74%
    21:00 +7°C° 0 mm 3 mps 760 mmHg 76%
    22:00 +7°C° 0 mm 3 mps 760 mmHg 78%
    23:00 +5°C° 0 mm 3 mps 760 mmHg 80%

    30 March, Saturday

    Time Temperature Precipitation Wind Pressure Humidity
    00:00 +5°C° 0 mm 3 mps 760 mmHg 83%
    01:00 +4°C° 0 mm 3 mps 760 mmHg 85%
    02:00 +4°C° 0 mm 3 mps 760 mmHg 87%
    03:00 +4°C° 0 mm 3 mps 759 mmHg 89%
    04:00 +3°C° 0 mm 3 mps 759 mmHg 90%
    05:00 +4°C° 0 mm 3 mps 759 mmHg 88%
    06:00 +5°C° 0 mm 3 mps 759 mmHg 86%
    07:00 +5°C° 0 mm 3 mps 759 mmHg 84%
    08:00 +8°C° 0 mm 3 mps 759 mmHg 78%
    09:00 +10°C° 0 mm 3 mps 758 mmHg 73%
    10:00 +12°C° 0 mm 4 mps 758 mmHg 67%
    11:00 +12°C° 0 mm 4 mps 758 mmHg 62%
    12:00 +13°C° 0 mm 4 mps 757 mmHg 58%
    13:00 +14°C° 0 mm 4 mps 757 mmHg 53%
    14:00 +14°C° 0 mm 4 mps 756 mmHg 54%
    15:00 +14°C° 0 mm 4 mps 755 mmHg 54%
    16:00 +14°C° 0 mm 4 mps 755 mmHg 54%
    17:00 +12°C° 0 mm 4 mps 754 mmHg 59%
    18:00 +11°C° 0 mm 3 mps 754 mmHg 65%
    19:00 +9°C° 0 mm 3 mps 753 mmHg 71%
    20:00 +8°C° 0 mm 3 mps 753 mmHg 73%
    21:00 +8°C° 0 mm 3 mps 753 mmHg 75%
    22:00 +7°C° 0 mm 3 mps 752 mmHg 77%
    23:00 +7°C° 0 mm 3 mps 752 mmHg 80%
    Show more